This demonstration page uses our WeatherBlox Daily Observations layout. Learn more.

Left ArrowRight Arrow

Hourly Observations for August 8, 2015

Temp ( °F °C ) Dew Point ( °F °C ) Humidity (%) Winds ( mph kmh ) Pressure ( in mb ) Visibility ( mi km ) Precip ( " mm )
12:53 am 00:53 Clear 77 25 53 11.7 43 43 Calm 29.78 1008 10 16 0.00 0.00
1:53 am 01:53 Clear 74 23.3 53 11.7 48 48 Calm 29.79 1009 10 16 0.00 0.00
2:53 am 02:53 Clear 74 23.3 52 11.1 46 46 Calm 29.80 1009 10 16 0.00 0.00
3:53 am 03:53 Clear 74 23.3 54 12.2 50 50 S 5 7 29.81 1010 10 16 0.00 0.00
4:53 am 04:53 Clear 71 21.7 54 12.2 55 55 Calm 29.82 1010 10 16 0.00 0.00
5:53 am 05:53 Clear 68 20 54 12.2 61 61 Calm 29.83 1010 10 16 0.00 0.00
6:53 am 06:53 Sunny 69 20.6 55 12.8 61 61 Calm 29.85 1011 10 16 0.00 0.00
7:53 am 07:53 Sunny 72 22.2 56 13.3 57 57 S 3 6 29.86 1011 10 16 0.00 0.00
8:53 am 08:53 Sunny 75 23.9 56 13.3 52 52 S 6 9 29.88 1012 10 16 0.00 0.00
9:53 am 09:53 Sunny 77 25 55 12.8 47 47 S 8 13 29.87 1012 10 16 0.00 0.00
10:53 am 10:53 Sunny 81 27.2 53 11.7 38 38 VRB 6 9 29.87 1012 10 16 0.00 0.00
11:53 am 11:53 Sunny 84 28.9 53 11.7 34 34 Calm 29.85 1011 10 16 0.00 0.00
12:53 pm 12:53 Sunny 86 30 50 10 29 29 Calm 29.84 1011 10 16 0.00 0.00
1:53 pm 13:53 Sunny 90 32.2 49 9.4 24 24 S 9 15 29.83 1010 10 16 0.00 0.00
2:53 pm 14:53 Sunny 92 33.3 47 8.3 21 21 S 10 17 29.82 1010 10 16 0.00 0.00
3:53 pm 15:53 Sunny 93 33.9 47 8.3 21 21 S 10 17 29.80 1009 10 16 0.00 0.00
4:53 pm 16:53 Sunny 93 33.9 44 6.7 18 18 S 12 19 29.79 1009 10 16 0.00 0.00
5:53 pm 17:53 Sunny 92 33.3 46 7.8 21 21 S 12 19 29.79 1009 10 16 0.00 0.00
6:53 pm 18:53 Sunny 91 32.8 48 8.9 23 23 SSE 8 13 29.79 1009 10 16 0.00 0.00
7:53 pm 19:53 Mostly Cloudy 87 30.6 49 9.4 27 27 SSE 8 13 29.79 1009 10 16 0.00 0.00
8:53 pm 20:53 Mostly Cloudy 83 28.3 52 11.1 34 34 SSE 8 13 29.80 1009 10 16 0.00 0.00
9:53 pm 21:53 Mostly Cloudy 81 27.2 53 11.7 38 38 Calm 29.82 1010 10 16 0.00 0.00
10:53 pm 22:53 Clear 77 25 54 12.2 45 45 Calm 29.83 1010 10 16 0.00 0.00
11:53 pm 23:53 Clear 74 23.3 53 11.7 48 48 Calm 29.85 1011 10 16 0.00 0.00

Powered by AerisWeather